Location: C�mpuri de-Sus
(45.9500°N, 22.5500°E)
Time: 01:27:43
(UTC+00:00)

Cosmos 839 Rocket - Pass Details

Date: 06 June 2022
Orbit: 968 x 2085 km, 65.9° (Epoch: 06 July)

Event Time Altitude Azimuth Distance (km) Brightness Sun altitude
Rises 22:13:58 0° 318° (NW) 3,750 7.9 -21.2°
Reaches altitude 10° 22:16:39 10° 308° (NW) 2,868 7.0 -21.3°
Maximum altitude 22:22:26 32° 248° (WSW) 1,877 5.3 -21.3°
Enters shadow 22:24:48 27° 216° (SW) 2,170 5.4 -21.3°
